www.pogodaiklimat.ru

Погода и климат >> Архив погоды >> Россия >> Архангельская область >> Зимнегорский Маяк


ПОГОДА в Зимнегорском Маяке

  • Прогноз погоды в Зимнегорском Маяке
  • Монитор погоды в Зимнегорском Маяке

АРХИВ ПОГОДЫ в Зимнегорском Маяке

Время (UTC), дата Ветер
(напр.,м/с)
 
Видим.   Явления Облачность Т
(С)
Тd
(С)
f
(%)
Тe
(С)
Тes
(С)
Комфортность P
(гПа)
Po
(гПа)
Тmin
(С)
Tmax
(С)
R
(мм)
R24
(мм)
S
(см)
09 11.08 З 3 20 км 3/3 600 м
[Sc]
+10.8 +7.5 80 +9 +14 1019.3 1009.9
12 11.08 СЗ 3 20 км 3/3 600 м
[Sc Ac trans]
+10.4 +7.5 82 +8 +12 1019.0 1009.6
15 11.08 С 1 20 км 3/3 600 м
[Sc]
+10.8 +5.6 70 +11 +12 1018.4 1009.1 +11.0
18 11.08 С 1 20 км 8/8 600 м
[Sc]
+9.3 +4.6 72 +9 +9 1018.5 1009.1
21 11.08 В 5 20 км 3/3 600 м
[Sc]
+6.1 +3.5 83 +2 +2 1018.6 1009.1
00 12.08 ЮВ 3 20 км 3/0
[Ac trans]
+5.7 +2.3 79 +2 +2 1019.1 1009.5
03 12.08 ЮВ 4 20 км 3/0
[Ci sp]
+7.9 +4.7 80 +5 +5 1019.2 1009.7 +5.4
06 12.08 Ю 5 20 км 3/0
[Ci sp]
+10.4 +6.1 75 +8 +10 1019.2 1009.8
09 12.08 Ю 5 20 км 6/0
[Ci sp]
+11.4 +6.3 71 +9 +13 1019.0 1009.6
12 12.08 Ю 5
{10}
20 км 3/0
[Ci sp]
+13.5 +5.2 57 +12 +15 1018.2 1008.9
15 12.08 Ю 4 20 км 3/0
[Ac trans]
+14.1 +3.5 49 +13 +14 1016.7 1007.5 +14.4
18 12.08 ЮВ 7 20 км 3/0
[Ci fib]
+12.2 +2.0 50 +10 +10 1016.1 1006.8
21 12.08 ЮВ 7-10
{11}
20 км ясно +10.9 +2.3 55 +8 +8 1015.5 1006.2
00 13.08 ЮВ 6
{11}
20 км 6/4 600 м
[Sc Ci fib]
+10.0 +5.4 73 +7 +7 1015.0 1005.6
03 13.08 ЮВ 7
{10}
20 км 6/3 600 м
[Sc Ci fib]
+10.2 +4.6 68 +7 +7 1014.3 1005.0 +9.7
06 13.08 ЮВ 7-11
{11}
20 км 9/9 600 м
[Sc]
+14.1 +4.6 53 +12 +12 1013.1 1003.9
09 13.08 ЮВ 9-14
{14}
20 км 9/9 600 м
[Sc]
+16.0 +5.1 48 +14 +14 1012.3 1003.1
12 13.08 ЮВ 8-14
{14}
20 км 9/6 600 м
[Sc Ci fib]
+16.9 +6.3 50 +16 +16 1011.1 1002.0
15 13.08 ЮВ 6-12
{14}
20 км 10/10 600 м
[Sc]
+15.9 +7.0 55 +15 +15 1010.3 1001.2 +17.1
18 13.08 ЮВ 6-12
{12}
20 км в посл. час ливневой дождь 10/10 300 м
[Cb cap]
+12.9 +9.2 78 +10 +10 1010.0 1000.8
21 13.08 ЮВ 6
{12}
4000 м слаб. ливневой дождь 10/10 300 м
[Cb cap]
+11.8 +8.4 80 +9 +9 1008.8 999.5
00 14.08 ЮВ 5 20 км {ливн. осадки} 10/10 300 м
[Cb cap]
+11.1 +8.3 83 +8 +8 1007.6 998.3
03 14.08 ЮВ 5 20 км 10/10 600 м
[Sc]
+11.2 +8.4 83 +8 +8 1007.0 997.7 +10.9 0.6
06 14.08 ЮЗ 3 20 км 9/9 600 м
[Sc]
+12.4 +10.1 86 +11 +11 1006.3 997.1
09 14.08 Ю 3 20 км 9/8 600 м
[Sc Ac trans]
+12.7 +10.6 87 +11 +12 1005.9 996.7
12 14.08 Ю 2 20 км 9/8 600 м
[Sc Ac trans]
+12.8 +11.4 91 +12 +13 1006.2 997.0
15 14.08 ЮВ 1 20 км в посл. час ливневой дождь 9/9 300 м
[Cb cap]
+13.6 +12.1 91 +14 +14 1006.2 997.1 +13.8 0.0
18 14.08 ЮВ 5 20 км {ливн. осадки} 4/1 300 м
[Cu med, cong Ac trans]
+12.9 +11.6 92 +11 +11 1006.3 997.1
21 14.08 ЮВ 6 4000 м слаб. ливневой дождь 10/10 300 м
[Cb cap]
+13.3 +12.6 96 +11 +11 1005.9 996.8
00 15.08 ЮВ 4 10 км {ливн. осадки} 8/8 300 м
[Cb calv]
+13.0 +12.1 94 +11 +11 1005.6 996.4
03 15.08 ЮВ 5 10 км 9/0
[Ac trans]
+13.0 +11.9 93 +11 +11 1005.6 996.4 +12.4 0.5
06 15.08 Ю 4 20 км 9/3 300 м
[Cu med, cong Ac trans]
+14.1 +12.6 91 +13 +14 1005.2 996.1
09 15.08 Ю 4 10 км 10/0
[As trans]
+14.0 +12.5 91 +12 +15 1004.8 995.7
12 15.08 Ю 4 10 км 10/10 600 м
[Sc]
+15.5 +12.6 83 +15 +15 1003.9 994.8
15 15.08 З 2 4000 м слаб. ливневой дождь 10/10 300 м
[Cb cap]
+14.2 +13.5 96 +14 +14 1003.0 993.9 +15.8 0.6
18 15.08 С 1 500 м слаб. ливневой дождь {туман} туман ?/? +12.4 +12.4 100 +12 +12 1002.0 992.8
21 15.08 СЗ 3 500 м слаб. дождь туман ?/? +10.6 +10.6 100 +8 +8 1001.4 992.2
00 16.08 З 4 500 м слаб. дождь туман ?/? +10.6 +10.6 100 +8 +8 1002.1 992.9
03 16.08 З 3 500 м слаб. дождь {туман} туман ?/? +10.7 +10.7 100 +8 +8 1003.2 994.0 +10.4 2
06 16.08 З 4 500 м туман {дождь} ?/? +10.9 +10.9 100 +8 +8 1005.2 996.0
09 16.08 З 5 500 м туман ?/? +11.2 +11.2 100 +8 +8 1007.1 997.8
12 16.08 З 2 500 м туман ?/? +12.0 +12.0 100 +11 +11 1009.2 1000.0
15 16.08 З 2 500 м туман ?/? +11.3 +11.3 100 +10 +10 1010.6 1001.3 +12.2 0.0
18 16.08 штиль 0 500 м туман ?/? +11.2 +11.2 100 +10 +10 1011.7 1002.4
21 16.08 В 1 20 км {туман} 10/10 300 м
[St]
+10.9 +10.5 97 +10 +10 1012.8 1003.5
00 17.08 В 2 20 км {туман} 10/10 600 м
[Sc]
+11.0 +10.8 99 +10 +10 1014.2 1004.9
03 17.08 С 2 20 км 8/8 600 м
[Sc]
+11.6 +11.2 97 +10 +10 1015.4 1006.1 +10.7
06 17.08 ЮЗ 1 4000 м дымка 10/10 300 м
[St]
+11.3 +11.1 99 +11 +11 1016.8 1007.4
09 17.08 ЮЗ 4 500 м туман ?/? +10.6 +10.6 100 +8 +8 1018.2 1008.8
12 17.08 Ю 4 500 м туман ?/? +11.6 +11.6 100 +9 +9 1018.5 1009.1
15 17.08 Ю 3 20 км {туман} 1/0
[Ci fib]
+15.4 +11.5 78 +15 +16 1018.4 1009.2 +15.4
18 17.08 ЮВ 5 20 км 3/0
[Ci sp]
+13.7 +11.3 85 +12 +12 1018.7 1009.4
21 17.08 ЮВ 5 20 км 6/0
[Ci sp]
+13.6 +11.5 87 +12 +12 1019.0 1009.7
00 18.08 ЮВ 5 20 км 8/0
[Ci sp]
+14.5 +11.9 84 +13 +13 1019.7 1010.4
03 18.08 ЮВ 4 20 км 3/0
[Ci sp]
+13.8 +11.6 87 +12 +13 1020.0 1010.7 +13.5
06 18.08 Ю 3 20 км 3/0
[Ci fib]
+18.7 +12.0 65 +20 +23 1020.1 1011.0

 

Местоположение метеостанции Зимнегорский Маяк (Архангельская область, Россия): широта 65.46 долгота 39.73 высота над уровнем моря 77 м.

В архиве по умолчанию представлена погода в Зимнегорском Маяке за последнюю неделю. Архивные данные за месяц целиком и за предыдущие месяцы, начиная с января 2011 года, Вы можете получить, выбрав интересующий диапазон дат из раскрывающегося списка и нажав кнопку "Ввод!".


*Определитесь, кто Вы:
робот инопланетянин человек

Внимание! Время в таблицах - всемирное. Для получения местного времени необходимо прибавить поправку, которая равна 3 ч.

Смотрите также архив погоды в соседних городах и на ближайших метеорологических станциях:

Погода на Мудьюг Острове (Архангельская область, Россия) (73 км)
Погода в Пялице (Мурманская область, Россия) (81 км)
Погода в Унском Маяке (Архангельская область, Россия) (94 км)
Погода в Кепино (Архангельская область, Россия) (98 км)
Погода в Северодвинске (Архангельская область, Россия) (98 км)
Погода на Чаваньга реке (Мурманская область, Россия) (115 км)
Погода в Архангельске (Архангельская область, Россия) (117 км)
Погода на Сосновец Острове (Мурманская область, Россия) (121 км)
Погода в Жижгине (Архангельская область, Россия) (139 км)
Погода в Холмогорах (Архангельская область, Россия) (166 км)

Пояснения к столбцам:

Ветер - указаны скорость ветра в м/с - средняя за 10 мин, порывы в срок и между сроками (в фигурных скобках) и направление, откуда дует ветер: С - северный, СВ - северо-восточный, В - восточный, ЮВ - юго-восточный, Ю - южный, ЮЗ - юго-западный, З - западный, СЗ - северо-западный.
Видимость - горизонтальная дальность видимости в метрах или километрах. При видимости от 1 до 10 км при отсутствии осадков обычно наблюдается дымка, при ухудшении видимости до 1 км и менее - туман. В сухую погоду видимость может ухудшаться дымом, пылью или мглою.
Явления - указаны атмосферные явления, наблюдавшиеся в срок или в последний час перед сроком; фигурными скобками обозначены явления, наблюдавшиеся между сроками (за 1-3 часа до срока); квадратными скобками обозначены град или гололедные отложения с указанием их диаметра в мм.
Облачность - указаны через наклонную черту общая и нижняя облачность в баллах и высота нижней границы облаков в метрах; квадратными скобками обозначены формы облаков: Ci - перистые, Cs - перисто-слоистые, Cc - перисто-кучевые, Ac - высококучевые, As - высокослоистые, Sc - слоисто-кучевые, Ns - слоисто-дождевые, Cu - кучевые, Cb - кучево-дождевые. Подробнее классификацию облаков см. в Атласе облаков (PDF).
T - Температура воздуха - температура, измеренная на высоте 2 м над землей.
Td - Температура точки росы - температура, при понижении до которой содержащийся в воздухе водяной пар достигнет насыщения.
f - Относительная влажность воздуха - влажноcть воздуха, измеренная на высоте 2 м над землей.
Te - Эффективная температура - температура, которую ощущает одетый по сезону человек в тени. Характеристика душности погоды. При расчете учитывается влияние влажности воздуха и скорости ветра на теплоощущения человека.
Tes - Эффективная температура на солнце - температура, которую ощущает человек, с поправкой на солнечный нагрев. Характеристика знойности погоды. Зависит от высоты солнца над горизонтом, облачности и скорости ветра. Ночью, в пасмурную погоду, а также при ветре 12 м/с и более поправка равна нулю.
P - Атмосферное давление - приведенное к уровню моря атмосферное давление.
Po - Атмосферное давление - измеренное на уровне метеостанции атмосферное давление.
Tmin - Минимальная температура - минимум температуры воздуха на высоте 2 м над землей.
Tmax - Максимальная температура - максимум температуры воздуха на высоте 2 м над землей.
R - Количество осадков - Количество выпавших осадков за период времени, мм. При наведении курсора мыши на число - период времени, за который выпало указанное количество осадков.
R24 - Количество осадков - Количество выпавших осадков за 24 часа, мм.
S - Снежный покров - Высота снежного покрова, см. При наведении курсора мыши на число - состояние снежного покрова и степень покрытия местности в баллах.